CW5752 Weather Reports


time (UTC)temp
F
wind
direction
speed
knots
gust
knots
rain 1hr
in
rain 24hr
in
rain mn
in
humidity
%
barometer
mb
20260504044537 64 181 4.3 12.2 0.00 0.00 0.00 56 1010.5
20260504043522 64 183 3.5 9.6 0.00 0.00 0.00 57 1010.4
20260504042522 64 187 2.6 10.4 0.00 0.00 0.00 56 1010.5
20260504041522 64 180 2.6 8.7 0.00 0.00 0.00 56 1010.6
20260504040522 64 180 3.5 11.3 0.00 0.00 0.00 56 1010.7
20260504035522 64 166 2.6 10.4 0.00 0.00 0.00 55 1010.8
20260504034516 64 191 3.5 11.3 0.00 0.00 0.00 55 1010.8
20260504033517 63 187 1.7 7.0 0.00 0.00 0.00 55 1010.9
20260504032542 63 179 2.6 7.0 0.00 0.00 0.00 54 1011.0
20260504031522 63 177 0.9 5.2 0.00 0.00 0.00 55 1010.9
20260504030522 63 186 1.7 7.0 0.00 0.00 0.00 54 1011.1
20260504025522 63 206 0.9 7.0 0.00 0.00 0.00 54 1011.1
20260504024522 62 168 0.9 5.2 0.00 0.00 0.00 54 1011.1
20260504023517 62 163 0.0 1.7 0.00 0.00 0.00 55 1011.0
20260504022522 62 167 0.0 3.5 0.00 0.00 0.00 54 1011.1
20260504021522 62 201 0.0 2.6 0.00 0.00 0.00 55 1011.2
20260504020522 61 207 0.0 1.7 0.00 0.00 0.00 56 1011.1
20260504015522 61 207 0.0 1.7 0.00 0.00 0.00 56 1011.1
20260504014522 63 0.0 0.9 0.00 0.00 0.00 53 1011.1
20260504013522 64 207 0.0 2.6 0.00 0.00 0.00 50 1011.1
20260504012537 64 186 0.9 5.2 0.00 0.00 0.00 48 1011.1
20260504011542 65 168 0.0 4.3 0.00 0.00 0.00 47 1011.1
20260504010522 66 165 0.9 4.3 0.00 0.00 0.00 45 1011.2
20260504005522 66 190 1.7 6.1 0.00 0.00 0.00 44 1011.2
20260504004522 66 167 1.7 8.7 0.00 0.00 0.00 44 1011.2
20260504003522 67 184 0.9 6.1 0.00 0.00 0.00 43 1011.1
20260504002516 68 190 1.7 8.7 0.00 0.00 0.00 42 1011.0
20260504001537 68 192 1.7 9.6 0.00 0.00 0.00 43 1011.0
20260504000522 68 171 3.5 9.6 0.00 0.00 0.00 41 1011.0
20260503235522 69 179 2.6 10.4 0.00 0.00 0.00 41 1011.0
20260503234523 69 176 3.5 11.3 0.00 0.00 0.00 40 1010.9
20260503233520 69 181 4.3 12.2 0.00 0.00 0.00 39 1011.1
20260503232542 70 192 3.5 8.7 0.00 0.00 0.00 38 1011.2
20260503231536 70 185 4.3 14.8 0.00 0.00 0.00 37 1011.1
20260503230522 70 186 5.2 17.4 0.00 0.00 0.00 37 1011.2
20260503225522 70 171 3.5 13.0 0.00 0.00 0.00 38 1011.2
20260503224522 70 181 4.3 12.2 0.00 0.00 0.00 38 1011.4
20260503223522 70 171 2.6 11.3 0.00 0.00 0.00 40 1011.4
20260503222522 70 187 4.3 13.0 0.00 0.00 0.00 39 1011.7
20260503221517 70 177 4.3 11.3 0.00 0.00 0.00 38 1011.7
20260503220516 71 185 4.3 12.2 0.00 0.00 0.00 39 1011.8
20260503215521 71 179 3.5 12.2 0.00 0.00 0.00 39 1012.0
20260503214522 71 187 4.3 13.9 0.00 0.00 0.00 37 1012.0
20260503213522 71 187 4.3 12.2 0.00 0.00 0.00 39 1012.2
20260503212522 70 166 3.5 11.3 0.00 0.00 0.00 38 1012.5
20260503211542 71 184 3.5 12.2 0.00 0.00 0.00 38 1012.9
20260503210517 70 168 3.5 13.0 0.00 0.00 0.00 39 1013.2
20260503205521 70 199 6.1 15.6 0.00 0.00 0.00 37 1013.5
20260503204522 70 174 2.6 12.2 0.00 0.00 0.00 40 1013.6
20260503203522 70 189 3.5 11.3 0.00 0.00 0.00 40 1013.8
20260503202602 70 189 3.5 9.6 0.00 0.00 0.00 38 1014.1
20260503201522 71 212 6.1 13.9 0.00 0.01 0.00 40 1014.6
20260503200522 69 176 4.3 13.0 0.00 0.01 0.00 39 1014.8
20260503195517 70 199 5.2 15.6 0.00 0.01 0.00 38 1015.2
20260503194522 70 214 5.2 12.2 0.00 0.03 0.00 37 1015.5
20260503193522 69 225 6.1 13.0 0.00 0.03 0.00 38 1015.7
20260503192542 69 187 4.3 11.3 0.00 0.03 0.00 40 1015.8
20260503191542 69 194 6.1 12.2 0.00 0.03 0.00 38 1016.2
20260503190522 68 199 6.1 13.9 0.00 0.03 0.00 40 1016.4
20260503185537 68 178 3.5 10.4 0.00 0.03 0.00 43 1016.5
20260503184517 68 186 5.2 12.2 0.00 0.03 0.00 42 1016.7
20260503183521 68 197 3.5 10.4 0.00 0.03 0.00 41 1016.9
20260503182542 68 198 5.2 12.2 0.00 0.03 0.00 42 1017.1
20260503181521 68 228 5.2 11.3 0.00 0.03 0.00 44 1017.4
20260503180521 67 198 3.5 11.3 0.00 0.03 0.00 47 1017.5
20260503175522 66 186 4.3 12.2 0.00 0.03 0.00 48 1017.7
20260503174516 65 177 3.5 10.4 0.00 0.03 0.00 46 1018.0
20260503173542 64 173 3.5 10.4 0.00 0.03 0.00 48 1018.1
20260503172522 64 177 4.3 13.9 0.00 0.03 0.00 45 1018.4
20260503171522 64 185 4.3 11.3 0.00 0.03 0.00 48 1018.7
20260503170521 63 168 3.5 12.2 0.00 0.03 0.00 47 1019.0
20260503150522 57 183 4.3 10.4 0.00 0.03 0.00 57 1019.7
20260503130521 49 182 0.9 5.2 0.00 0.03 0.00 84 1020.0
20260503110516 41 0.0 0.0 0.00 0.03 0.00 92 1019.7
20260503081521 41 0.0 0.0 0.00 0.03 0.00 92 1019.6
20260503080521 41 0.0 0.0 0.00 0.03 0.00 92 1019.5
20260503072521 42 0.0 0.0 0.00 0.03 0.00 92 1019.8
20260503071521 42 0.0 0.0 0.00 0.03 0.00 92 1019.9
20260503070522 43 0.0 0.0 0.00 0.03 0.00 92 1019.8
20260503054521 43 0.0 0.0 0.00 0.03 0.00 91 1020.0
20260503053521 44 0.0 0.0 0.00 0.03 0.00 91 1020.0
20260503052516 44 0.0 0.0 0.00 0.03 0.00 91 1020.0
20260503051521 43 0.0 0.0 0.00 0.03 0.00 91 1020.0
20260503050541 43 0.0 0.0 0.00 0.03 0.00 90 1019.9
20260503045542 43 0.0 0.0 0.00 0.03 0.03 90 1020.0